SCP
0 0 0 0 0 0 0 0 0 0 0 0 0 0 0 0 0 0 0 0 0 0 0 0 0 0 0 0 0 0 0 0 0 0 0 0 0 0 0 0 0 0 0 0
0 0 0 0 0 0 0 0 0 0 0 0 0 0 0 0 0 0 0 0 0 0 0 0 0 0 0 0 0 0 0 0 0 0 0 0 0 0 0 0 0 0 0 0
0 0 0 0 0 0 0 0 0 0 0 0 0 0 0 0 0 0 0 0 0 0 0 0 0 0 0 0 0 0 0 0 0 0 0 0 0 0 0 0 0 0 0 0
0 0 0 0 0 0 0 0 0 0 0 0 0 0 0 0 0 0 0 0 0 0 0 0 0 0 0 0 0 0 0 0 0 0 0 0 0 0 0 0 0 0 0 0
0 0 0 0 0 0 0 0 0 0 0 0 0 0 0 0 0 0 0 0 0 0 0 0 0 0 0 0 0 0 0 0 0 0 0 0 0 0 0 0 0 0 0 0
0 0 0 0 0 0 0 0 0 0 0 0 0 0 0 0 0 0 0 0 0 0 0 0 0 0 0 0 0 0 0 0 0 0 0 0 0 0 0 0 0 0 0 0
0 0 0 0 0 0 0 0 0 0 0 0 0 0 0 0 0 0 0 0 0 0 0 0 0 0 0 0 0 0 0 0 0 0 0 0 0 0 0 0 0 0 0 0
0 0 0 0 0 0 0 0 0 0 0 0 0 0 0 0 0 0 0 0 0 0 0 0 0 0 0 0 0 0 0 0 0 0 0 0 0 0 0 0 0 0 0 0
0 0 0 0 0 0 0 0 0 0 0 0 0 0 0 0 0 0 0 0 0 0 0 0 0 0 0 0 0 0 0 0 0 0 0 0 0 0 0 0 0 0 0 0
0 0 0 0 0 0 0 0 0 0 0 0 0 0 0 0 0 0 0 0 0 0 0 0 0 0 0 0 0 0 0 0 0 0 0 0 0 0 0 0 0 0 0 0
0 0 0 0 0 0 0 0 0 0 0 0 0 0 0 0 0 0 0 0 0 0 0 0 0 0 0 0 0 0 0 0 0 0 0 0 0 0 0 0 0 0 0 0
0 0 0 0 0 0 0 0 0 0 0 0 0 0 0 0 0 0 0 0 0 0 0 0 0 0 0 0 0 0 0 0 0 0 0 0 0 0 0 0 0 0 0 0
0 0 0 0 0 0 0 0 0 0 0 0 0 0 0 0 0 0 0 0 0 0 0 0 0 0 0 0 0 0 0 0 0 0 0 0 0 0 0 0 0 0 0 0
0 0 0 0 0 0 0 0 0 0 0 0 0 0 0 0 0 0 0 0 0 0 0 0 0 0 0 0 0 0 0 0 0 0 0 0 0 0 0 0 0 0 0 0
0 0 0 0 0 0 0 0 0 0 0 0 0 0 0 0 0 0 0 0 0 0 0 0 0 0 0 0 0 0 0 0 0 0 0 0 0 0 0 0 0 0 0 0
0 0 0 0 0 0 0 0 0 0 0 0 0 0 0 0 0 0 0 0 0 0 0 0 0 0 0 0 0 0 0 0 0 0 0 0 0 0 0 0 0 0 0 0
0 0 0 0 0 0 0 0 0 0 0 0 0 0 0 0 0 0 0 0 0 0 0 0 0 0 0 0 0 0 0 0 0 0 0 0 0 0 0 0 0 0 0 0
0 0 0 0 0 0 0 0 0 0 0 0 0 0 0 0 0 0 0 0 0 0 0 0 0 0 0 0 0 0 0 0 0 0 0 0 0 0 0 0 0 0 0 0
0 0 0 0 0 0 0 0 0 0 0 0 0 0 0 0 0 0 0 0 0 0 0 0 0 0 0 0 0 0 0 0 0 0 0 0 0 0 0 0 0 0 0 0
0 0 0 0 0 0 0 0 0 0 0 0 0 0 0 0 0 0 0 0 0 0 0 0 0 0 0 0 0 0 0 0 0 0 0 0 0 0 0 0 0 0 0 0
0 0 0 0 0 0 0 0 0 0 0 0 0 0 0 0 0 0 0 0 0 0 0 0 0 0 0 0 0 0 0 0 0 0 0 0 0 0 0 0 0 0 0 0
0 0 0 0 0 0 0 0 0 0 0 0 0 0 0 0 0 0 0 0 0 0 0 0 0 0 0 0 0 0 0 0 0 0 0 0 0 0 0 0 0 0 0 0
0 0 0 0 0 0 0 0 0 0 0 0 0 0 0 0 0 0 0 0 0 0 0 0 0 0 0 0 0 0 0 0 0 0 0 0 0 0 0 0 0 0 0 0
0 0 0 0 0 0 0 0 0 0 0 0 0 0 0 0 0 0 0 0 0 0 0 0 0 0 0 0 0 0 0 0 0 0 0 0 0 0 0 0 0 0 0 0
0 0 0 0 0 0 0 0 0 0 0 0 0 0 0 0 0 0 0 0 0 0 0 0 0 0 0 0 0 0 0 0 0 0 0 0 0 0 0 0 0 0 0 0
0 0 0 0 0 0 0 0 0 0 0 0 0 0 0 0 0 0 0 0 0 0 0 0 0 0 0 0 0 0 0 0 0 0 0 0 0 0 0 0 0 0 0 0
Wind_Speed
7 8 5 2 1 1 3 3 2 2 4 6 9 10 7 8 9 9 9 8 8 7 5 4 4 2 2 3 4 4 5 6 5 4 5 5 5 5 4 4 7 8 8 9
7 5 3 1 1 3 3 2 1 1 3 5 5 9 6 8 9 9 10 10 9 6 5 5 4 2 2 4 4 5 6 6 6 4 4 4 6 4 4 5 7 8 9 10
5 1 2 3 4 3 2 1 2 2 0 1 5 8 2 3 4 5 7 7 7 9 8 5 4 3 3 4 5 6 6 7 6 6 5 6 4 4 4 5 4 6 10 10
3 2 1 3 3 2 0 1 1 2 1 4 2 7 5 3 4 7 8 8 8 7 6 4 3 3 2 3 4 5 6 6 6 6 6 7 8 8 8 6 7 9 9 10
1 2 2 2 0 0 2 0 2 2 1 3 1 2 9 1 7 11 10 9 8 7 6 5 3 1 2 3 4 5 5 6 6 7 7 7 6 6 7 8 8 8 7 9
1 0 1 1 1 0 0 3 4 4 3 3 2 3 10 5 8 7 7 9 8 7 6 4 2 2 3 3 4 4 6 6 7 7 7 7 9 9 11 12 9 8 7 7
1 0 1 1 0 3 3 4 6 7 4 4 1 3 12 5 6 5 6 9 8 7 6 3 2 2 3 4 5 6 7 7 8 8 8 8 8 8 10 11 11 12 10 10
1 4 1 2 1 1 2 3 4 3 5 7 2 7 9 1 1 2 3 6 7 7 5 4 3 1 2 4 5 6 7 8 8 8 8 8 7 6 7 9 10 11 10 11
2 4 0 1 1 1 2 3 2 4 2 5 8 9 9 2 2 2 4 6 7 7 6 5 3 1 2 4 5 6 7 8 8 8 9 7 7 8 9 10 9 9 10 12
1 3 2 1 2 3 2 6 4 3 2 6 8 7 7 7 8 7 7 8 7 6 6 5 3 0 2 3 4 6 6 7 7 8 7 9 9 9 10 10 11 12 12 13
1 1 3 1 3 4 3 3 4 3 3 2 7 11 8 7 6 10 11 9 9 8 7 5 3 0 2 4 4 5 6 7 7 7 7 8 8 9 10 9 11 11 11 14
2 3 3 4 0 1 4 5 7 3 3 4 4 13 3 3 3 6 8 8 8 8 7 5 3 1 3 4 5 6 6 6 7 7 7 8 9 9 9 10 11 11 12 13
4 3 3 4 2 1 1 3 4 4 4 4 5 14 1 1 2 3 6 8 8 8 7 4 2 1 3 4 5 6 6 6 6 6 7 8 8 9 10 10 11 11 12 13
5 3 5 6 4 2 4 4 6 6 4 6 12 17 13 6 7 6 6 8 8 8 7 5 3 1 3 4 5 5 6 6 6 6 7 7 8 9 10 10 11 11 11 12
4 2 4 7 5 3 6 8 8 10 9 10 11 11 18 8 7 9 9 9 9 7 7 6 4 3 3 4 5 5 5 6 6 6 7 7 8 9 9 10 10 10 11 12
3 2 2 6 3 3 7 10 9 10 8 10 11 19 12 3 1 6 10 12 10 8 8 7 5 4 4 4 4 5 5 5 5 6 6 8 8 9 9 10 10 10 10 11
4 3 1 6 5 5 10 9 11 9 10 11 11 12 2 3 5 8 12 13 10 8 8 8 6 5 4 4 4 4 5 5 5 6 6 7 8 9 9 11 10 10 9 9
6 4 2 3 7 6 8 1 6 7 9 11 11 11 5 5 3 4 7 12 10 10 9 8 6 5 4 3 3 3 4 4 5 6 6 7 7 8 9 9 10 9 7 8
3 5 4 1 3 12 11 3 5 5 11 9 12 13 2 3 1 3 6 9 10 10 8 7 6 5 4 3 2 3 3 4 5 6 6 7 7 7 8 8 9 7 7 7
4 4 5 4 2 9 8 2 3 2 9 7 9 7 7 8 2 7 10 10 8 8 7 7 6 5 4 3 2 2 3 4 5 6 6 6 6 7 7 7 7 6 7 7
3 3 4 5 6 14 7 4 5 3 10 4 7 9 13 13 8 3 11 9 8 8 7 7 6 6 5 3 2 2 3 4 5 6 6 6 6 7 7 6 6 7 8 9
10 9 8 7 6 15 7 10 12 14 4 4 6 8 12 9 5 8 11 12 12 9 8 7 7 6 5 4 3 3 4 5 5 5 6 6 6 6 7 7 7 7 8 8
10 11 10 14 14 7 12 14 11 4 6 7 7 8 10 9 9 11 10 11 11 10 9 7 7 6 5 4 4 4 4 4 5 5 6 6 7 6 6 6 7 7 7 7
7 5 6 8 16 11 12 13 11 9 9 7 7 9 13 11 13 13 12 12 11 11 9 8 8 7 6 5 5 5 4 4 4 5 6 6 6 7 7 6 6 6 7 8
9 9 6 10 12 10 11 14 16 12 9 7 7 10 14 14 13 14 13 13 12 12 9 9 9 8 7 5 5 5 4 3 4 5 5 5 6 6 6 7 5 7 6 10
10 14 13 13 12 9 10 6 6 9 11 12 11 9 9 12 15 15 13 13 12 12 10 9 9 8 7 6 5 5 4 3 4 4 5 4 5 5 6 6 8 11 12 17
Wind_Direction
20 58 45 329 265 155 137 160 239 267 166 185 229 251 231 193 197 207 212 214 216 220 209 186 184 190 297 297 312 321 338 338 341 338 334 322 318 310 306 310 319 316 315 318
40 48 321 314 68 112 116 125 247 271 167 209 262 263 240 192 203 205 207 211 210 206 197 205 208 214 272 295 317 332 342 334 335 326 313 299 305 300 303 309 307 308 315 318
112 280 319 87 63 88 89 148 249 250 63 41 325 301 219 213 203 208 209 207 199 199 203 213 220 234 264 304 327 336 329 329 327 324 317 319 302 296 313 317 304 313 317 316
71 351 64 82 66 75 165 235 185 150 42 315 2 306 285 222 233 227 217 203 198 197 190 197 212 239 283 322 334 328 326 327 327 329 331 335 341 332 324 318 314 317 314 315
48 11 57 89 110 167 228 39 139 145 143 326 333 250 287 147 257 242 221 204 196 189 183 188 190 205 8 355 336 329 331 329 329 331 329 326 317 305 312 317 316 315 314 314
153 210 111 232 294 4 144 79 70 68 72 316 229 199 281 222 226 247 215 196 189 180 176 164 130 64 12 348 337 340 343 334 329 328 324 319 313 315 324 329 325 325 320 312
348 302 17 311 113 20 58 63 12 354 355 277 169 228 253 253 218 227 211 192 179 170 165 162 115 32 347 340 349 351 346 332 326 325 320 313 310 314 321 325 326 326 324 321
280 293 327 24 85 82 40 95 122 276 276 296 292 248 259 259 231 243 194 164 157 162 162 153 125 79 327 348 355 349 337 326 323 322 318 310 314 323 322 320 320 317 316 314
204 268 88 85 86 106 94 92 130 143 295 288 282 282 301 154 238 178 156 154 170 172 162 149 134 122 356 357 348 337 327 322 319 318 317 319 330 327 323 319 315 313 313 315
135 279 300 84 92 43 71 141 97 108 315 297 294 284 267 257 241 219 204 192 186 169 157 151 154 166 2 352 333 328 322 315 311 315 322 339 330 324 322 321 319 319 318 318
69 207 303 343 204 197 129 116 111 114 164 216 294 278 229 232 228 218 210 192 180 172 166 164 171 142 6 343 331 322 318 314 312 316 320 325 323 323 324 322 320 320 320 323
102 121 283 265 299 37 178 179 154 167 226 201 239 271 257 222 248 221 199 176 169 161 157 160 160 69 354 330 321 317 313 312 311 316 323 325 324 324 324 322 322 324 326 327
134 104 352 344 335 353 207 187 165 132 128 170 217 267 244 195 250 208 175 163 156 152 155 160 150 32 317 309 309 309 309 309 311 321 326 325 324 325 324 323 324 328 329 330
112 140 192 232 254 227 229 205 168 148 187 222 230 261 283 249 235 211 178 165 158 160 165 168 170 244 282 292 296 301 306 310 322 329 326 325 324 324 322 323 326 329 331 335
113 195 247 258 258 236 241 224 191 195 204 215 246 256 275 284 234 204 174 163 162 170 178 179 183 222 260 282 294 301 307 315 324 328 328 326 324 323 324 328 329 331 337 340
116 171 317 291 214 257 264 240 211 218 220 237 266 275 273 312 134 155 165 172 178 184 185 182 189 210 239 264 286 301 308 314 323 326 324 325 328 329 330 330 332 335 337 336
138 134 22 284 300 318 277 234 186 206 210 198 228 253 229 241 210 193 185 184 184 181 180 181 190 208 228 247 269 288 301 311 323 323 322 325 327 329 330 333 335 333 329 330
137 129 133 302 350 268 249 114 174 212 243 215 240 260 238 238 212 202 183 181 179 177 176 179 183 198 216 233 261 285 305 319 322 321 322 321 324 324 324 330 331 325 318 324
137 139 130 106 307 284 295 234 179 204 278 223 227 255 166 105 62 265 205 182 177 172 168 172 178 188 198 223 257 294 314 321 321 319 318 316 316 318 323 328 325 317 317 316
62 97 117 139 218 257 258 151 164 98 285 250 205 218 156 146 206 251 180 163 155 153 153 161 170 179 194 214 232 274 304 312 312 310 308 307 311 318 316 318 315 313 315 319
134 128 155 174 228 263 251 151 145 188 252 233 191 187 169 191 208 180 148 148 150 149 155 161 171 185 197 199 207 251 283 289 294 302 305 308 313 312 307 315 310 315 320 323
172 164 186 160 201 254 196 148 189 219 223 191 197 188 188 191 141 143 153 154 155 156 159 167 176 192 196 193 199 244 267 278 296 304 307 309 310 311 322 317 309 312 314 314
198 190 182 192 216 234 179 203 220 207 213 211 202 195 170 162 171 164 165 163 165 167 172 174 180 188 199 199 201 237 260 288 305 310 309 307 310 309 310 308 306 312 310 309
230 187 184 243 260 245 225 240 247 223 224 219 195 176 169 174 173 169 168 170 171 174 179 178 179 190 204 208 213 229 262 289 301 305 305 305 308 311 314 315 315 313 312 311
200 165 201 249 269 289 259 230 238 236 225 213 189 181 181 171 171 172 173 176 178 179 179 183 189 197 203 202 219 234 250 274 292 299 301 308 312 309 313 318 312 315 311 327
187 180 184 231 227 211 252 227 205 207 212 199 182 182 182 178 176 172 176 176 176 177 177 185 193 198 199 200 219 231 238 249 277 298 307 308 308 314 320 318 322 331 338 339